Orbital Elements at Epoch 2459000.5 (2020-May-31.0) TDB
Reference: JPL 15 (heliocentric ecliptic J2000)
Element | Value | Uncertainty (1-sigma) | Units |
e | .03685716522339298 | 4.5717e-08 | |
a | 2.709139117832508 | 1.8845e-08 | au |
q | 2.609287929753398 | 1.2043e-07 | au |
i | 1.855429808170898 | 6.2959e-06 | deg |
node | 182.371900186763 | 0.0001466 | deg |
peri | 311.5751211222191 | 0.00017037 | deg |
M | 142.1499767763085 | 8.552e-05 | deg |
tp | 2458357.383458764139 (2018-Aug-26.88345876) | 0.00038687 | TDB |
period | 1628.716093350052 4.46 | 1.6994e-05 4.653e-08 | d yr |
n | .2210329973835575 | 2.3063e-09 | deg/d |
Q | 2.808990305911618 | 1.9539e-08 | au |
|
| | Orbit Determination Parameters
Additional Information
|